Location: Ciserano
(45.5833°N, 9.6000°E)
Time: 23:27:32
(UTC+00:00)

FALCON 9 DEB - Pass Details

Date: 19 June 2021
Orbit: 364 x 377 km, 53.0° (Epoch: 26 July)

Event Time Altitude Azimuth Distance (km) Brightness Sun altitude
Rises 21:42:52 0° 252° (WSW) 2,254 6.8 -17.3°
Reaches altitude 10° 21:44:57 10° 258° (WSW) 1,405 5.8 -17.5°
Maximum altitude 21:48:00 48° 334° (NNW) 516 3.9 -17.7°
Drops below altitude 10° 21:51:05 10° 51° (NE) 1,414 5.9 -17.9°
Sets 21:53:12 0° 57° (ENE) 2,270 6.9 -18.0°
